Wind_Speed
12 13 13 13 13 13 13 12 12 11 11 10 9 9 9 8 7 6 6 6 7 7 8 8 7 7 7 7 10 14 15 15 14 13 12 8 7 8 7 9 9 9 12 13 13 13 14 15 15 17 18 18 18 16 13 11 9 7 5 6 7 7 5 5 5 6 10 12 14 12 9 9 8 7 9 9 8 7 5 3 2 1 2 3 5 4 5 3
13 13 13 13 13 13 13 13 12 12 11 11 10 9 9 8 8 7 7 6 6 6 7 7 8 9 7 6 7 11 15 16 16 16 14 9 8 11 11 12 11 11 12 12 13 14 16 17 17 18 18 19 18 17 16 13 11 8 6 7 6 4 2 4 4 5 8 12 15 15 12 11 8 8 9 11 10 8 6 4 2 1 1 3 3 4 4 5
14 14 14 14 14 14 14 14 13 13 12 12 11 10 9 9 8 8 8 7 7 6 6 6 7 9 9 7 5 7 11 16 17 17 16 12 12 13 11 12 13 14 15 16 17 18 19 20 20 20 19 19 17 17 17 15 13 10 7 7 6 6 5 6 5 5 8 11 15 16 15 14 11 9 11 11 10 7 5 3 3 1 1 1 2 3 4 5
15 15 15 14 14 14 14 14 13 13 12 12 11 11 10 9 8 8 8 8 8 7 6 6 7 9 9 8 6 6 8 13 16 18 18 14 15 14 10 12 14 16 18 19 19 19 21 20 19 20 19 18 17 16 16 16 15 13 9 7 7 7 6 6 5 5 7 11 15 15 17 17 14 13 12 10 9 7 4 2 3 3 3 3 2 2 4 5
17 16 16 15 15 15 14 14 13 13 12 11 11 10 10 9 8 8 8 8 9 9 7 6 7 8 9 8 7 6 6 9 13 17 19 16 16 16 12 12 15 16 19 20 19 17 18 17 17 18 17 15 15 15 16 17 17 14 10 9 9 8 7 5 6 5 6 11 14 15 17 19 17 16 15 11 8 8 6 4 3 4 5 5 4 3 3 4
19 18 17 17 16 16 15 15 14 13 13 13 12 11 10 9 9 9 9 9 9 10 9 7 7 8 8 9 7 7 6 7 9 13 18 18 18 18 16 14 14 15 17 18 18 15 14 15 15 16 16 15 14 16 19 18 17 15 12 13 12 11 10 7 7 7 7 10 12 15 17 18 19 18 16 14 11 10 9 7 6 5 5 5 4 4 4 4
21 20 19 19 18 17 16 16 15 15 15 14 14 12 11 9 9 9 9 9 9 10 10 9 9 9 9 9 8 7 6 6 7 10 14 18 19 20 19 17 15 14 14 15 16 15 12 14 15 16 18 16 15 19 21 19 18 17 16 16 15 14 13 11 9 9 8 9 11 15 17 18 18 19 17 14 13 13 12 10 8 7 7 6 4 3 5 5
22 22 21 21 20 19 18 18 17 17 17 16 15 14 12 10 10 9 9 9 9 10 11 9 10 10 10 10 8 8 7 5 6 8 9 13 18 21 20 19 18 15 14 13 15 16 15 15 18 19 18 17 18 21 21 18 18 19 18 19 17 16 15 13 10 8 7 7 10 14 15 16 17 18 17 15 13 13 13 11 9 8 7 7 4 3 5 6
23 22 22 22 21 20 20 19 19 19 19 18 17 15 13 12 12 11 10 9 9 10 11 10 10 11 12 11 10 10 7 5 6 7 8 10 15 19 20 20 20 17 16 15 16 17 17 18 20 21 20 20 22 23 20 18 19 20 21 21 19 18 16 13 11 8 5 5 7 11 14 15 16 16 16 15 13 13 13 13 10 8 7 7 5 4 6 6
22 22 22 22 22 22 21 21 21 21 21 20 18 16 15 14 15 14 12 10 9 10 11 11 11 11 12 12 13 10 7 8 7 5 7 8 11 16 20 21 21 20 17 16 16 15 16 20 23 24 24 25 25 24 21 19 21 23 24 23 19 18 16 13 11 10 7 4 4 7 12 13 15 15 16 16 14 13 13 14 11 9 8 8 6 6 7 6
22 22 22 22 23 22 22 22 22 22 22 21 19 17 16 16 17 16 15 13 11 11 12 11 11 12 13 14 14 9 7 11 10 7 7 8 10 13 17 20 20 20 19 18 16 16 18 22 27 28 28 27 26 26 23 21 23 25 26 23 19 18 16 13 12 11 10 9 9 6 10 13 14 14 15 17 15 13 14 14 12 10 9 9 7 8 7 6
22 22 22 22 22 22 23 22 22 23 24 23 21 19 19 19 19 18 17 15 13 13 13 11 11 12 14 16 14 8 10 13 11 11 9 8 10 10 14 18 20 20 20 19 18 18 20 24 29 29 26 27 27 27 25 24 25 27 26 23 20 18 15 14 14 14 13 13 14 10 7 13 13 14 15 18 15 13 14 15 14 11 9 9 8 8 8 7
23 22 22 22 22 22 22 22 23 24 25 24 22 21 20 20 20 20 19 17 15 15 14 13 13 13 15 16 12 8 12 15 14 15 11 7 8 10 12 16 19 20 20 20 20 21 22 24 27 28 27 28 27 26 25 25 27 28 27 23 21 16 13 15 17 16 14 14 16 12 6 14 13 13 15 17 16 14 13 13 14 13 11 9 8 8 9 8
24 24 24 24 23 23 23 23 23 24 25 24 23 22 21 21 21 20 20 19 17 16 16 15 15 15 16 16 10 8 13 17 18 16 12 8 9 10 12 14 17 20 21 22 22 22 23 24 25 27 29 29 28 26 26 27 28 29 27 23 20 14 12 17 20 16 14 16 18 14 7 12 13 14 15 16 16 15 13 12 13 14 13 11 8 8 9 8
27 26 26 26 26 25 24 24 24 25 25 24 23 22 21 21 21 21 21 20 19 17 16 16 17 16 18 19 12 10 14 18 18 13 11 11 11 12 12 13 15 18 21 23 24 24 25 25 24 25 27 28 29 27 25 27 28 29 26 21 19 13 13 18 19 15 15 19 20 13 9 13 14 15 15 16 17 15 14 13 14 15 16 14 10 8 9 7
29 29 29 28 28 28 27 26 26 27 27 25 24 24 23 22 21 21 21 21 20 19 18 17 18 17 19 21 16 13 16 18 15 11 12 15 16 16 14 13 13 14 18 22 25 26 26 26 25 25 26 28 29 27 26 26 27 27 24 20 18 15 17 19 17 15 18 21 20 13 12 15 15 15 15 17 18 16 14 13 14 15 17 16 12 9 9 8
33 32 32 31 31 31 30 29 28 29 29 27 26 25 24 23 23 22 22 22 21 20 20 19 19 19 20 23 20 17 18 18 16 13 15 18 18 18 16 14 14 15 17 19 22 24 26 26 26 26 26 26 28 28 26 23 22 23 21 19 19 18 20 19 17 17 20 21 19 14 15 16 16 17 16 17 18 16 14 13 12 13 16 18 13 9 9 9
37 36 35 34 34 34 33 32 31 31 31 30 29 28 27 25 24 24 23 22 21 22 22 21 21 20 21 24 23 20 19 19 19 17 17 19 18 17 17 17 17 17 17 17 18 20 23 24 25 27 27 27 27 26 20 14 16 21 20 19 20 21 20 18 17 18 20 21 19 16 17 16 16 17 16 16 16 15 14 12 11 10 13 18 15 9 8 9
40 39 39 38 38 37 35 35 34 34 34 33 32 31 31 29 27 26 25 23 23 23 23 22 22 22 22 25 25 23 21 21 20 19 19 19 18 16 18 19 19 19 18 16 16 17 19 21 23 24 24 26 25 22 18 15 18 22 21 20 22 24 22 19 18 19 22 23 20 18 17 16 17 16 15 15 14 13 12 11 10 8 10 16 16 9 7 8
42 41 41 41 41 40 38 37 37 36 36 36 35 34 34 34 31 29 27 26 25 24 23 22 22 22 23 26 27 26 24 22 21 20 20 20 20 17 17 18 19 19 18 16 16 16 18 19 17 17 19 22 23 23 22 20 22 24 23 21 22 25 24 20 18 19 23 24 21 20 18 17 16 15 14 15 14 14 12 9 9 7 8 14 16 11 7 7
43 43 43 43 43 43 42 40 39 38 38 38 38 37 37 36 36 34 31 29 28 26 25 24 23 21 23 28 29 28 28 25 22 22 21 21 22 20 17 17 17 16 17 19 19 19 17 10 6 10 16 20 23 24 24 22 23 26 26 23 22 25 25 22 20 20 23 24 22 22 21 19 17 15 15 16 16 13 10 7 5 3 4 9 14 12 7 5
45 45 45 45 45 45 45 44 42 41 40 40 40 40 40 39 39 38 35 32 31 30 27 26 26 21 23 31 30 30 30 24 22 24 23 23 23 21 19 18 17 16 19 23 22 20 15 6 3 8 13 19 23 24 25 24 24 26 28 26 23 23 25 25 23 21 25 26 23 24 24 22 20 19 19 18 15 11 11 11 6 3 1 5 10 10 7 4
47 47 47 47 47 47 47 46 45 44 44 43 42 42 42 41 41 40 39 35 32 33 31 29 29 24 25 32 33 31 27 22 24 26 24 23 23 22 22 19 18 20 22 23 21 19 15 9 9 11 13 17 21 24 26 26 27 27 28 28 23 22 26 28 25 25 28 29 26 26 27 24 23 22 20 19 16 14 15 15 14 11 5 1 5 8 6 3
49 49 49 49 49 49 49 49 47 46 46 46 45 44 44 43 43 43 42 39 33 32 35 35 31 27 28 33 36 33 25 22 26 26 25 24 24 24 23 21 22 22 22 22 21 21 19 15 15 16 17 18 21 24 27 28 28 27 28 28 22 22 27 29 28 29 31 31 27 27 29 26 25 23 20 19 18 18 17 17 19 16 9 3 3 5 6 3
51 51 51 50 50 50 51 51 50 49 48 48 48 47 46 46 46 45 44 44 37 32 35 39 36 32 32 35 37 35 29 24 23 27 28 25 25 26 25 26 26 23 22 22 23 22 20 19 19 20 20 20 22 25 27 28 28 28 28 25 22 25 28 30 31 31 33 33 29 29 31 27 26 25 22 21 20 19 17 17 18 17 12 7 3 2 5 4
54 53 53 52 51 51 52 53 52 51 50 51 50 49 49 48 48 48 46 46 42 35 34 40 41 38 35 37 37 36 35 26 22 31 31 26 27 29 29 30 27 23 23 24 25 22 20 22 23 23 22 21 22 22 23 25 27 27 25 23 25 28 30 31 32 34 36 35 32 33 33 27 27 27 23 22 21 19 19 19 19 18 17 12 6 2 3 5
56 56 55 54 53 52 52 53 54 54 53 53 52 51 51 50 50 50 49 49 47 40 36 39 42 42 40 40 39 38 38 29 27 36 32 25 29 32 32 31 27 25 25 26 24 17 16 22 23 23 23 23 21 18 18 21 22 20 22 25 27 28 31 32 35 38 38 37 37 37 34 30 26 25 24 23 22 22 22 21 20 20 19 15 10 6 2 5
56 56 56 56 56 54 53 52 54 56 56 55 55 53 53 52 52 51 51 51 50 45 40 39 42 44 43 43 42 40 39 34 34 38 33 29 32 34 33 30 27 26 27 28 23 16 17 21 22 23 25 26 21 17 17 18 16 16 22 27 27 28 32 35 39 40 40 41 41 37 36 33 22 22 27 27 25 23 22 21 22 22 19 16 13 9 5 3
56 57 57 57 57 57 55 54 53 55 56 57 57 56 55 55 54 53 53 52 51 48 45 42 42 44 45 45 44 43 41 37 37 39 38 36 34 35 34 31 30 31 31 30 25 23 24 24 24 26 28 27 24 21 19 18 16 16 21 27 29 31 32 37 41 40 42 45 41 36 37 33 19 20 29 28 23 21 19 21 23 23 20 18 16 13 9 4
56 57 58 58 57 57 57 56 55 54 55 56 58 58 58 58 56 56 56 53 51 50 48 45 44 44 45 45 44 44 43 40 39 40 40 38 36 37 35 33 35 36 35 33 30 28 28 28 29 27 25 26 25 25 23 21 21 21 24 29 33 33 34 40 42 43 46 43 36 34 38 37 22 19 27 23 17 17 19 24 26 24 22 20 18 15 12 7
57 57 58 59 58 57 57 57 57 56 55 55 57 59 59 59 59 59 58 53 51 52 51 49 47 45 46 45 44 43 43 42 41 41 41 40 39 40 37 37 38 38 37 35 32 31 31 32 31 26 24 24 25 25 25 25 25 26 28 32 36 36 37 41 44 46 42 32 29 33 40 40 22 15 20 18 13 17 21 25 27 25 23 22 19 17 13 8
59 58 59 59 59 59 58 56 56 57 57 55 56 59 59 61 62 61 58 54 52 54 54 52 49 47 47 46 44 42 41 42 42 41 42 41 41 40 37 36 36 36 36 32 29 31 31 30 30 28 26 24 23 24 26 27 27 27 30 34 36 37 39 42 43 42 32 24 27 33 39 37 16 11 14 13 12 16 20 24 25 25 25 24 23 21 18 14
60 60 60 59 59 60 60 58 57 57 58 57 57 58 60 62 63 61 59 56 56 56 56 54 52 49 47 46 45 43 41 42 43 43 43 42 42 41 39 37 36 37 34 29 29 32 31 30 31 30 26 24 23 22 23 26 26 27 28 31 33 35 38 38 37 35 28 26 30 32 40 38 17 8 11 11 12 15 19 23 22 22 23 24 24 23 21 19
63 62 61 61 61 61 61 60 59 58 59 60 59 59 61 63 62 61 60 59 58 58 57 56 55 52 49 47 46 46 43 42 43 45 45 44 43 42 42 41 41 41 37 34 35 35 34 33 32 28 24 24 24 21 21 24 26 26 27 31 33 32 33 32 33 32 27 28 32 33 39 36 18 9 10 11 15 16 18 22 20 19 20 21 22 23 22 22
64 64 63 62 62 63 63 63 62 61 61 61 62 62 62 62 61 62 62 60 59 59 58 57 57 54 52 50 48 47 46 43 43 45 47 48 45 42 42 41 40 41 40 38 37 36 36 34 29 29 29 28 26 24 25 28 28 28 30 33 30 27 29 32 34 36 33 34 35 34 33 27 19 16 16 16 18 18 18 20 20 19 18 19 21 22 23 23
66 66 65 64 63 64 65 65 65 65 63 63 64 64 62 61 62 62 62 61 60 60 59 58 57 57 55 53 51 49 49 47 46 46 47 49 48 44 42 41 41 41 40 40 38 38 38 32 28 33 34 30 29 28 31 32 30 32 34 31 25 23 29 33 34 36 39 41 39 34 31 25 21 21 19 18 19 20 21 19 19 18 17 20 22 22 22 20
69 69 68 65 64 65 66 67 67 67 67 66 65 65 63 63 64 64 64 63 62 61 61 59 59 59 58 57 54 52 52 51 50 49 48 50 51 49 47 46 46 45 44 43 43 42 41 35 32 35 34 29 30 33 36 36 34 35 32 26 26 30 33 35 35 35 40 43 39 33 29 26 23 19 16 17 17 19 22 20 19 19 18 19 20 21 20 19
72 72 71 68 67 67 67 67 68 69 69 68 67 66 66 66 65 65 66 66 64 63 62 61 61 61 61 60 58 56 54 53 52 52 51 52 54 53 51 50 50 51 49 48 47 46 45 41 39 38 34 32 35 38 40 40 38 36 30 28 34 36 35 36 37 35 37 39 34 29 26 23 19 13 12 15 16 17 20 21 20 20 19 18 17 18 18 19
75 74 74 72 70 69 68 68 69 69 70 70 68 68 68 68 67 67 68 68 67 66 65 64 63 63 62 62 61 59 57 56 56 55 55 55 56 56 54 53 52 53 52 51 50 48 47 46 43 40 37 37 41 44 44 41 37 35 34 35 38 37 36 37 38 36 35 35 32 29 25 18 14 12 12 13 14 16 19 21 21 20 19 19 17 15 16 17
73 73 74 76 73 70 70 69 68 69 70 70 70 70 70 70 70 70 71 71 70 70 69 67 66 65 65 64 63 62 60 59 58 58 58 59 59 59 58 56 54 54 53 52 52 50 48 48 46 43 42 44 47 48 44 39 37 37 37 38 37 38 38 38 39 37 35 34 32 30 23 11 8 12 14 13 13 14 17 20 22 22 21 21 18 16 17 18
66 66 70 74 73 70 70 69 68 69 69 69 71 71 71 72 72 72 73 74 73 73 73 71 69 68 67 66 65 64 63 62 61 61 61 61 61 61 61 59 57 56 55 54 54 52 51 52 51 47 47 49 49 47 41 38 38 39 40 39 37 38 39 40 40 36 34 33 31 30 26 13 9 12 15 15 15 13 15 18 20 22 22 22 20 19 20 19
57 58 62 67 66 65 65 65 66 67 68 69 70 70 70 71 72 73 74 75 75 76 75 74 73 71 69 68 68 67 66 65 64 64 64 64 64 64 63 62 60 59 58 57 56 55 55 56 55 51 51 51 50 46 43 41 41 42 44 42 40 41 42 42 39 34 34 35 32 33 31 17 11 14 16 17 16 14 15 17 18 20 21 22 22 22 21 20
50 50 53 57 58 57 57 58 61 62 63 66 68 68 68 70 71 72 72 74 76 77 77 77 76 75 73 71 70 69 68 67 67 67 67 67 67 66 66 64 63 61 61 60 59 58 58 58 57 54 53 53 51 49 48 46 46 48 49 46 45 46 44 42 39 35 37 39 35 36 33 19 13 15 17 18 19 17 16 16 17 19 21 22 23 22 22 22
43 42 44 47 49 50 49 49 52 55 56 58 61 63 65 67 69 70 70 72 75 77 78 79 78 78 76 75 73 71 71 70 69 69 69 69 69 69 68 67 65 64 63 62 62 61 61 61 60 57 56 55 54 53 54 53 53 54 53 49 48 46 43 43 41 40 43 43 38 38 34 23 16 16 19 20 20 19 17 16 16 17 20 22 23 23 23 24
38 36 36 38 40 42 43 41 41 45 47 49 52 56 59 62 65 67 68 71 73 76 78 80 81 80 79 78 76 74 74 73 72 72 72 72 71 71 70 69 68 66 65 65 64 64 63 63 63 61 59 58 58 57 58 57 56 57 55 52 50 47 45 45 43 45 47 43 40 39 33 25 19 19 20 22 21 20 19 18 17 17 19 21 23 24 25 27
35 32 30 31 34 36 37 36 34 34 38 40 44 49 53 56 60 63 65 68 71 74 76 79 81 82 81 81 79 78 77 76 75 74 74 74 73 72 72 71 70 69 68 67 67 67 66 65 65 64 62 61 60 59 59 58 58 59 58 56 53 50 48 47 47 50 48 43 41 38 31 28 25 20 20 22 22 22 21 20 20 19 19 20 22 25 27 29
33 31 28 26 28 30 32 32 29 27 29 32 36 42 48 51 55 58 60 63 66 69 72 77 80 81 82 83 82 81 80 79 78 77 77 77 76 75 74 73 72 71 71 70 69 69 68 67 67 67 64 63 61 60 60 61 61 61 60 58 56 53 51 50 52 52 47 46 44 36 30 32 30 23 21 21 21 22 22 22 23 22 21 21 22 24 26 27
30 29 27 25 25 26 27 27 26 23 24 26 29 35 42 48 52 53 53 54 57 62 66 72 76 79 82 84 84 82 82 81 80 80 80 79 79 77 76 75 75 74 73 73 72 71 70 69 69 69 67 65 63 62 61 61 61 61 61 59 57 55 53 53 53 50 48 50 45 33 31 35 32 28 23 20 20 22 23 24 26 25 22 20 20 22 24 26
28 26 25 24 24 24 23 23 22 21 20 20 23 27 33 42 48 51 52 50 48 52 58 64 70 75 78 82 83 83 83 82 82 82 82 81 81 80 79 78 77 76 76 75 74 74 73 72 71 71 70 67 66 65 63 62 62 62 61 60 59 57 55 54 54 51 50 51 45 37 38 39 33 29 25 22 23 25 26 28 29 27 24 21 21 23 25 28
26 23 21 21 22 22 22 20 18 18 18 17 18 20 23 30 38 44 49 50 47 47 51 56 62 67 71 76 80 79 81 83 83 83 83 83 83 82 81 81 80 79 78 78 77 76 75 74 74 73 72 70 68 67 66 64 64 63 62 60 59 58 57 57 57 55 53 52 47 43 44 42 35 29 26 24 24 26 28 31 31 29 28 25 25 26 28 29
24 22 19 18 20 20 19 18 16 16 16 16 17 16 16 21 26 30 38 45 48 49 51 55 57 58 61 67 72 75 78 82 83 84 84 84 85 85 84 83 82 82 81 80 79 79 78 77 76 75 75 72 70 70 69 67 66 65 63 61 60 60 60 59 58 58 56 54 50 47 48 44 33 27 27 26 26 27 28 31 31 32 31 29 28 30 30 30
22 21 18 17 18 19 18 17 16 15 15 15 15 15 14 16 18 20 26 34 40 45 50 55 58 57 56 57 61 69 77 81 82 83 84 85 86 87 87 86 85 84 83 82 81 81 81 80 78 78 78 75 72 72 71 70 69 67 63 61 61 61 61 60 60 59 58 55 53 52 50 41 30 29 30 30 30 30 29 30 32 33 33 32 31 31 31 31
Wind_Direction
291 292 293 293 294 294 295 294 295 295 294 295 296 297 300 302 307 311 314 314 308 301 294 291 287 279 274 263 247 242 240 238 236 231 231 234 227 220 212 205 194 192 202 205 203 199 203 203 197 195 197 200 202 200 201 205 207 204 179 146 128 115 98 93 103 110 101 87 76 65 61 61 57 64 66 61 54 48 47 47 83 138 220 168 162 170 160 180
289 289 290 290 290 290 291 291 291 292 292 293 294 295 296 297 297 296 299 302 303 305 299 293 287 280 275 271 256 244 239 236 235 234 235 228 220 218 210 207 196 193 196 197 204 202 203 206 202 201 202 205 206 204 207 207 207 212 187 156 139 126 106 126 129 107 98 92 85 73 61 56 50 51 51 47 42 34 37 46 67 126 217 189 177 192 179 183
288 287 287 287 287 287 287 287 288 288 290 291 292 293 293 292 291 287 286 287 289 294 297 296 287 281 276 271 262 249 240 237 235 236 237 224 221 227 217 209 203 197 192 192 201 202 205 206 202 203 205 208 208 206 207 205 208 213 193 165 153 151 142 142 140 106 101 103 96 84 72 63 50 43 39 39 40 25 17 27 20 13 301 248 197 194 190 191
287 285 285 284 284 285 284 285 286 286 288 289 291 291 291 291 288 283 278 277 278 279 283 289 286 282 280 276 265 253 241 238 234 234 237 225 223 234 224 213 210 204 199 199 203 205 210 209 203 205 207 208 208 206 204 202 209 214 199 174 167 167 157 144 141 120 115 115 105 93 82 72 58 46 38 34 39 34 27 33 17 360 336 327 302 222 200 196
284 283 282 281 281 281 282 282 282 284 285 286 287 289 291 291 289 285 278 272 271 271 271 273 279 281 283 281 274 262 247 241 235 233 236 230 226 234 229 217 215 211 208 208 210 212 214 209 204 208 209 209 208 207 205 205 210 215 202 179 181 194 191 162 150 151 137 125 111 99 89 82 71 56 43 30 30 42 44 36 26 2 335 332 327 294 245 209
281 280 279 277 277 276 277 278 278 279 280 282 283 284 286 288 289 285 280 274 269 268 265 263 267 274 280 282 281 276 261 248 238 233 234 231 227 231 231 225 223 221 218 216 216 217 213 204 201 207 208 205 203 205 208 209 209 213 202 182 188 205 209 191 166 162 146 131 117 104 96 91 81 67 53 34 27 40 41 26 11 352 325 323 329 303 270 237
281 279 278 276 274 272 272 272 273 274 276 278 279 279 280 282 284 281 278 274 271 269 265 260 259 264 271 276 282 282 271 250 238 235 234 231 229 231 232 231 231 231 228 223 220 221 212 196 193 203 207 202 199 206 210 208 206 211 204 190 194 205 212 209 186 169 153 139 121 109 103 97 88 78 68 48 31 29 26 17 3 343 323 317 325 298 267 252
281 280 278 276 274 271 269 268 268 269 271 273 274 276 277 278 277 275 273 270 270 269 267 262 257 258 262 268 274 273 271 258 243 237 233 230 230 232 233 233 233 234 234 226 219 218 210 193 192 201 205 202 204 212 212 206 207 212 208 201 201 207 216 221 209 188 171 159 134 119 112 103 94 88 80 63 41 28 18 12 1 346 334 320 313 288 265 253
281 280 278 276 274 272 269 267 267 267 267 268 270 272 275 278 275 270 266 265 266 266 266 263 258 257 258 261 264 265 272 266 250 238 232 227 227 230 231 233 234 232 232 227 219 214 205 195 196 201 203 203 208 215 213 205 208 211 211 209 207 211 221 227 224 217 206 188 155 133 124 112 101 96 88 72 51 34 20 14 7 354 351 334 310 288 273 256
282 281 279 277 275 273 270 268 267 266 266 265 266 268 272 274 273 271 266 262 261 261 261 260 259 258 258 259 256 259 271 264 253 238 235 230 224 226 227 229 231 232 231 229 225 216 205 199 201 203 203 204 208 215 213 205 208 210 215 217 211 213 221 226 232 239 248 257 227 160 141 128 111 102 94 81 61 43 25 16 16 6 2 352 324 303 288 265
283 282 280 278 276 274 272 269 268 267 266 265 264 266 267 268 269 269 268 263 259 257 257 258 259 258 259 258 254 256 268 263 260 248 234 230 226 223 224 225 227 230 230 229 228 217 208 205 207 207 205 205 208 214 213 206 209 211 219 223 213 212 217 226 239 247 264 277 270 238 161 142 121 111 101 87 71 51 31 16 17 15 7 1 341 321 304 278
284 283 281 279 277 275 273 271 269 267 266 265 264 265 264 264 264 265 265 262 258 256 256 256 254 255 258 257 255 258 261 259 260 254 238 226 232 225 221 223 223 227 227 226 225 219 213 209 214 214 208 209 211 215 214 208 211 215 222 224 215 215 215 225 243 254 270 271 270 269 173 144 127 118 107 92 78 59 40 21 13 12 11 5 349 332 315 295
284 282 281 280 278 276 275 272 270 267 265 264 265 264 263 263 262 262 262 260 257 256 256 254 251 251 255 259 259 252 255 259 255 251 246 237 238 232 223 220 220 224 226 226 224 220 217 214 217 216 211 214 214 217 216 211 214 218 224 223 217 221 214 223 243 254 266 265 267 275 181 146 135 123 111 98 86 70 52 30 12 4 10 14 355 335 323 311
282 281 279 278 278 277 275 274 272 269 266 265 265 263 262 260 260 261 261 260 258 254 254 253 251 250 253 259 257 240 248 255 252 248 251 251 244 239 233 226 222 221 224 226 226 224 223 222 221 217 216 217 217 220 218 214 217 221 226 224 220 222 208 221 239 248 261 263 266 267 200 156 141 127 115 104 93 80 64 44 22 3 2 13 3 338 327 322
280 280 278 277 276 275 274 273 272 270 267 266 265 264 262 259 259 260 260 260 258 254 252 251 251 250 253 257 251 236 241 250 253 254 256 255 248 242 236 233 231 225 224 225 225 225 226 228 228 224 222 219 219 225 222 217 219 223 227 223 221 214 198 219 236 248 261 260 260 251 190 159 141 129 120 109 99 91 77 58 37 14 360 3 5 343 327 327
278 278 277 276 275 274 273 272 271 270 268 266 265 264 262 260 259 259 259 259 258 256 252 249 249 248 252 258 254 239 241 251 257 259 255 250 246 245 241 239 241 238 234 230 228 228 227 229 230 228 225 221 223 228 227 223 221 224 228 220 217 207 196 215 235 247 254 252 251 234 176 153 139 129 125 115 105 97 84 63 43 24 2 355 1 349 329 328
277 277 276 275 274 273 271 270 269 269 269 267 266 264 262 260 259 258 257 258 258 256 253 249 248 247 249 256 256 247 245 251 255 251 246 246 244 245 245 241 241 241 240 237 233 233 232 232 232 231 230 228 227 227 229 231 225 226 231 221 214 208 201 213 234 246 247 244 243 216 170 148 136 127 125 121 110 98 84 68 50 30 7 353 354 351 333 325
276 276 275 275 274 272 271 269 267 267 267 266 265 264 262 259 257 257 255 256 256 254 253 250 249 248 249 254 256 253 248 248 250 248 245 248 247 244 245 243 240 241 242 244 243 239 238 237 235 234 233 233 232 232 238 244 231 228 231 223 215 212 205 206 225 239 236 233 231 203 167 147 138 129 126 124 112 98 85 74 59 38 11 352 344 347 336 324
275 275 274 274 273 272 271 269 268 266 265 264 263 263 263 260 256 255 254 253 253 253 253 251 250 250 250 253 254 251 248 246 250 250 247 251 252 245 246 248 246 246 245 247 250 248 244 240 237 235 235 238 241 244 250 247 233 228 230 226 217 214 205 199 217 232 227 224 223 205 173 153 146 136 131 131 120 105 90 76 63 41 11 351 336 336 333 321
272 272 272 272 272 271 270 269 268 266 265 264 262 260 260 260 258 255 254 252 250 251 252 250 249 249 249 250 252 252 249 245 247 249 246 250 255 249 244 247 249 250 251 250 249 247 245 244 244 242 240 243 246 246 246 240 231 228 228 226 220 216 205 201 218 228 227 223 221 212 186 165 159 150 149 150 138 119 102 83 63 36 8 351 332 325 328 321
271 270 270 270 270 270 269 268 267 266 265 264 263 261 259 259 259 257 255 254 252 249 248 249 246 245 250 251 249 249 248 243 242 245 244 247 254 252 245 245 246 248 252 249 244 242 241 247 261 247 238 239 241 243 241 238 231 227 227 222 218 215 205 205 216 222 229 225 219 216 196 178 176 173 172 164 145 128 121 113 80 25 355 350 330 321 323 323
269 269 268 268 268 268 268 267 267 266 265 264 263 262 260 258 258 257 255 253 254 252 246 245 246 240 245 252 250 248 249 248 244 244 243 244 250 254 248 243 240 240 243 244 244 244 239 236 261 242 232 232 234 237 236 234 230 226 225 221 215 211 204 207 214 217 227 225 218 218 206 190 191 191 183 168 155 156 157 149 152 177 219 336 332 326 319 320
268 267 267 267 267 267 266 266 265 265 265 264 262 262 261 260 258 258 256 251 252 255 252 244 242 238 240 251 253 249 248 249 248 245 242 242 245 250 249 244 240 237 239 243 247 248 241 231 237 233 225 226 228 230 231 228 226 223 223 222 212 206 206 208 213 217 222 224 220 222 216 202 201 200 185 173 175 187 180 164 161 153 140 271 317 325 315 307
269 267 266 266 265 265 265 265 264 264 264 263 262 261 260 260 259 258 257 254 247 250 257 252 243 235 236 246 253 253 248 244 248 248 244 242 241 244 248 245 240 237 238 241 244 245 241 232 229 228 223 220 220 224 225 224 224 221 221 221 209 206 211 208 213 219 221 223 222 226 226 212 207 205 190 187 193 193 189 171 154 139 131 197 271 314 306 286
270 268 266 265 264 264 264 264 263 263 262 262 261 260 260 259 259 258 257 256 249 243 252 257 252 242 236 242 250 255 251 241 246 250 244 241 240 241 244 243 241 240 240 240 242 242 241 236 231 231 230 225 221 221 223 224 224 222 222 222 211 208 213 209 211 219 223 224 223 228 230 218 212 209 199 201 201 191 188 172 152 143 145 164 191 287 292 280
270 269 267 266 264 263 263 262 262 261 260 260 260 259 259 258 259 258 258 257 253 246 244 251 255 251 244 241 243 249 250 243 241 246 242 236 238 239 238 241 242 240 239 239 240 237 237 238 234 233 234 232 230 227 227 227 226 223 220 220 216 211 212 211 212 219 224 223 222 227 232 225 216 212 207 207 204 196 187 172 159 154 147 145 150 165 266 271
270 269 268 267 265 263 263 261 260 260 259 258 258 258 258 258 257 258 258 257 255 252 246 244 249 251 249 247 244 244 247 243 239 246 244 236 238 239 238 240 241 239 238 239 240 237 237 241 238 236 237 237 236 234 235 236 233 225 216 218 221 214 211 212 212 218 224 224 222 225 232 233 219 209 212 213 211 204 189 173 164 157 147 143 144 139 184 256
271 269 267 267 265 263 263 262 260 259 259 258 257 256 256 257 257 256 257 257 256 255 250 244 245 248 249 248 247 246 246 241 239 244 244 236 234 237 237 238 239 238 237 237 236 231 232 237 238 236 235 234 234 233 234 235 233 221 211 215 220 218 213 212 214 217 221 225 225 223 231 240 225 205 215 221 217 205 186 175 168 158 148 144 144 139 148 226
273 271 268 267 265 264 263 262 260 259 259 258 256 255 255 254 255 255 255 255 255 255 253 248 245 247 247 247 247 247 246 243 240 241 242 239 236 237 237 236 236 234 233 233 230 223 223 228 230 230 230 229 226 225 223 221 218 210 208 210 214 217 213 212 217 218 220 228 232 224 227 242 235 204 216 221 211 197 180 174 169 159 154 150 147 146 144 168
274 273 270 268 266 264 263 263 261 260 259 258 257 255 254 253 252 253 252 252 254 255 254 252 247 246 247 247 245 245 247 245 242 242 242 240 238 237 236 233 234 234 232 231 228 224 221 224 230 230 231 229 225 224 222 217 209 201 203 208 212 215 212 213 218 219 223 235 242 226 223 240 240 204 212 217 199 190 182 175 171 166 163 156 150 147 142 146
274 273 271 269 268 265 264 264 262 261 260 258 256 255 254 253 251 250 250 251 253 253 253 252 249 246 246 247 246 244 244 245 244 243 243 241 239 238 237 235 236 236 235 233 230 227 223 224 231 234 233 231 228 226 224 222 214 202 202 208 212 214 213 214 217 220 230 249 252 228 224 238 236 186 203 215 196 194 188 180 176 171 165 158 152 150 146 148
272 271 270 269 268 266 265 264 262 262 261 259 256 255 254 253 251 249 249 249 250 250 250 251 249 247 246 247 247 244 242 242 243 244 243 242 241 242 241 241 242 242 241 240 236 234 230 228 232 234 233 231 229 226 224 227 225 213 210 213 216 217 216 218 222 229 246 268 256 233 228 238 231 165 200 213 190 190 188 187 185 176 170 167 163 161 161 163
270 269 268 268 267 266 265 263 261 261 261 260 258 255 253 252 250 249 249 248 248 248 248 250 249 247 246 245 246 245 242 239 240 241 242 241 239 239 238 237 237 238 238 236 232 232 232 229 230 231 231 231 230 227 227 232 234 229 225 225 226 225 224 227 233 241 257 266 257 240 231 238 241 196 210 213 199 192 183 189 193 187 183 177 171 169 169 171
270 268 266 265 265 264 264 262 260 259 258 258 258 256 254 252 250 249 248 247 246 246 246 247 248 247 245 243 243 244 243 239 237 238 240 240 238 237 236 235 233 233 231 227 226 226 225 223 225 227 230 233 235 234 234 236 235 234 233 233 235 236 237 240 242 248 257 260 258 247 236 243 257 248 238 232 223 215 197 194 198 201 199 189 179 175 176 179
272 269 265 263 262 262 261 261 259 256 255 255 255 255 254 253 252 250 249 247 246 245 244 245 246 246 245 243 241 241 242 240 237 237 239 240 239 236 237 238 237 236 233 230 228 228 226 222 219 221 224 226 228 229 231 233 232 231 230 230 234 240 244 243 241 243 250 253 255 254 251 258 271 265 257 245 233 230 221 210 206 208 207 202 195 188 186 187
275 272 268 264 261 260 258 257 256 255 253 252 251 253 254 254 253 251 250 248 246 244 243 243 243 244 244 243 240 239 240 240 238 236 236 239 239 235 233 234 235 234 233 232 230 230 230 224 217 224 226 223 222 222 226 228 228 230 231 230 236 241 241 241 239 239 243 247 251 254 257 261 262 256 253 247 239 237 236 228 218 215 210 208 208 203 198 194
277 274 271 267 264 261 258 256 254 253 252 250 249 251 251 250 250 251 250 248 246 244 243 241 241 241 242 242 240 237 237 238 238 236 234 236 238 235 231 229 229 229 228 228 227 227 228 221 216 224 227 223 222 223 225 225 224 227 228 227 233 235 234 236 237 233 236 243 247 249 253 255 254 252 251 250 245 239 240 240 231 223 218 214 212 211 207 202
279 276 273 269 266 263 260 257 254 252 251 250 249 248 247 246 247 248 248 248 246 244 242 241 240 239 240 241 240 237 235 235 236 236 234 234 236 236 234 231 230 230 228 228 227 226 226 221 216 219 221 219 221 223 224 224 224 226 224 222 228 232 232 236 238 236 236 243 249 250 253 254 253 255 257 253 250 244 244 245 242 235 229 223 217 219 218 212
281 278 275 271 268 265 262 259 256 253 251 250 248 246 244 244 243 243 244 245 245 244 242 241 239 238 238 238 239 237 234 233 233 234 234 234 234 235 235 233 232 232 232 230 229 228 227 224 218 216 216 217 221 224 224 223 224 226 224 223 227 231 233 236 241 242 241 246 252 254 254 254 252 257 262 256 251 249 246 245 247 244 237 232 225 226 233 226
283 281 277 272 270 267 263 260 257 254 252 250 248 245 243 242 241 240 241 242 243 243 242 241 239 237 236 236 237 236 234 232 232 233 233 234 234 234 234 234 232 233 233 234 233 231 230 230 224 217 215 218 223 226 225 223 224 226 227 228 230 234 235 235 239 243 243 245 249 251 251 246 238 245 251 252 246 241 242 243 246 247 243 237 227 223 234 235
286 284 280 274 272 270 266 262 258 255 252 250 247 245 243 241 239 239 239 240 240 241 241 241 239 237 235 235 235 235 234 232 231 231 232 233 234 234 234 234 233 233 233 234 234 233 232 233 230 222 220 222 225 228 228 226 227 228 229 230 232 236 239 239 241 244 248 251 253 256 256 249 231 229 230 236 235 224 225 231 235 240 241 238 232 227 229 234
292 290 284 278 275 273 269 265 261 256 253 250 247 245 243 241 239 238 237 237 238 239 239 239 238 237 235 234 234 233 233 232 230 229 230 231 233 233 233 233 233 233 233 233 234 233 233 234 233 228 226 227 228 228 228 227 228 229 229 228 228 232 236 239 242 245 251 255 255 259 258 244 223 227 224 226 229 222 219 221 223 227 229 230 233 234 230 227
298 295 290 285 281 278 273 269 264 259 255 251 248 245 243 240 238 237 236 235 235 236 237 237 237 237 235 233 232 232 232 232 230 229 229 230 231 232 233 233 232 232 233 233 233 233 233 234 234 231 229 230 229 228 228 227 227 229 229 226 226 229 232 237 239 241 246 248 249 252 251 234 212 225 227 225 229 229 224 221 222 225 224 223 227 232 229 222
301 299 295 292 289 286 281 275 267 262 257 252 248 245 243 240 238 235 234 234 233 233 234 235 235 235 234 233 231 231 231 231 230 229 229 229 230 231 232 233 232 232 232 232 232 233 233 233 234 232 229 228 227 226 227 227 227 230 230 228 228 229 231 234 236 236 239 240 240 243 245 235 216 214 221 224 226 228 228 224 223 224 225 225 223 226 227 224
304 301 298 297 296 294 291 285 275 266 260 254 248 244 241 239 237 235 233 232 231 231 231 232 233 232 233 233 231 229 229 229 229 229 229 228 229 230 231 231 232 231 231 231 232 232 233 233 234 233 231 229 228 227 228 228 230 232 233 232 231 229 229 232 236 238 239 239 238 240 245 245 229 212 215 224 224 225 227 226 225 223 225 228 225 221 221 223
307 302 299 300 302 302 299 295 286 273 263 254 247 242 239 237 236 234 232 231 230 229 230 230 231 231 231 231 230 228 227 227 227 228 228 228 228 228 229 230 231 231 231 231 231 232 232 233 234 234 232 231 230 229 229 230 232 234 235 234 233 232 231 232 236 239 241 242 242 243 248 251 244 222 212 220 224 224 224 225 226 225 225 228 229 225 222 223
310 306 303 305 307 307 306 303 296 282 266 254 245 239 235 233 233 232 230 230 229 228 229 229 229 229 229 229 229 228 227 225 225 225 226 228 228 227 227 228 229 229 230 231 231 232 233 233 234 234 233 232 232 231 229 229 231 233 235 236 235 235 234 235 238 241 242 243 244 245 248 251 250 238 220 216 222 225 224 224 226 226 224 224 229 230 228 227
312 309 308 311 312 311 312 310 303 291 275 259 248 241 234 230 230 228 227 227 227 228 228 228 228 228 228 228 228 227 226 225 224 223 224 226 227 227 225 225 226 227 228 230 231 231 233 233 234 235 234 233 232 232 230 230 231 232 235 237 237 237 237 238 241 242 243 245 246 246 246 247 248 245 235 222 223 228 227 227 228 229 227 224 227 231 230 225
313 310 312 317 316 314 317 315 308 300 289 273 261 250 239 233 230 228 225 222 222 225 226 227 228 228 228 228 228 227 226 225 223 222 222 223 225 225 224 224 224 225 227 229 230 231 232 233 234 235 235 234 233 232 231 231 232 233 235 237 238 238 239 240 241 240 240 244 245 242 243 244 242 244 243 233 228 229 228 230 232 232 230 224 223 227 227 223
313 310 313 318 316 315 318 317 309 304 300 291 279 267 251 240 236 233 229 223 217 219 223 224 225 227 227 228 228 227 226 225 224 222 221 221 222 223 223 222 223 224 225 227 229 231 231 232 233 234 235 234 234 234 233 231 232 234 234 236 238 240 241 240 240 239 238 240 241 240 241 242 239 241 244 241 235 230 228 230 233 233 230 224 220 222 224 225
315 311 312 317 316 315 318 317 312 307 306 304 299 291 274 256 246 240 237 230 222 220 223 223 222 224 226 228 228 228 227 226 224 223 221 220 220 220 221 221 222 222 223 225 228 230 230 231 232 233 234 234 233 234 234 233 233 234 235 236 238 239 240 240 239 239 240 240 239 239 240 240 239 241 245 246 244 238 231 228 230 232 231 226 222 223 224 225
316 312 311 315 316 316 316 316 313 308 305 307 309 305 294 281 268 253 244 239 231 227 229 230 228 224 224 226 228 229 227 225 225 224 222 221 220 219 219 220 220 221 221 223 225 228 230 230 230 232 234 233 232 233 234 234 234 234 234 234 234 237 238 239 238 240 242 242 242 242 242 240 238 239 240 240 242 242 236 229 227 229 232 230 225 225 227 227
Height
5882 5881 5881 5880 5879 5879 5878 5878 5877 5877 5877 5876 5876 5875 5875 5874 5874 5873 5872 5872 5871 5870 5870 5869 5869 5869 5870 5870 5870 5871 5871 5872 5873 5873 5873 5874 5874 5874 5875 5876 5877 5878 5879 5880 5881 5882 5883 5884 5885 5886 5886 5887 5888 5889 5890 5891 5893 5894 5895 5896 5896 5896 5897 5897 5897 5896 5895 5894 5894 5896 5896 5896 5895 5894 5894 5895 5896 5896 5896 5896 5896 5897 5897 5897 5897 5898 5898 5899
5881 5880 5880 5879 5879 5878 5878 5877 5877 5876 5876 5876 5875 5875 5874 5874 5873 5873 5872 5871 5871 5870 5869 5869 5868 5868 5868 5869 5869 5869 5870 5870 5871 5871 5872 5873 5873 5873 5874 5875 5876 5877 5878 5879 5880 5881 5882 5883 5884 5885 5886 5886 5887 5889 5890 5891 5892 5893 5895 5896 5895 5895 5896 5897 5897 5897 5896 5895 5894 5895 5896 5896 5896 5895 5894 5895 5896 5896 5896 5897 5897 5897 5897 5897 5898 5898 5898 5898
5879 5879 5878 5878 5877 5877 5876 5876 5876 5875 5875 5875 5874 5874 5874 5873 5873 5872 5872 5871 5870 5869 5869 5868 5867 5867 5867 5868 5868 5868 5868 5869 5870 5870 5870 5872 5872 5872 5873 5874 5875 5876 5876 5877 5878 5879 5880 5880 5882 5883 5884 5885 5887 5888 5889 5891 5892 5893 5894 5895 5894 5895 5896 5897 5897 5897 5897 5895 5894 5894 5895 5895 5895 5894 5895 5896 5897 5897 5897 5897 5897 5898 5898 5898 5897 5897 5897 5897
5878 5877 5877 5876 5876 5876 5875 5875 5874 5874 5874 5874 5873 5873 5873 5872 5872 5872 5871 5870 5870 5869 5868 5868 5867 5866 5866 5866 5867 5867 5867 5867 5868 5869 5869 5870 5871 5871 5873 5873 5874 5874 5874 5875 5876 5877 5878 5879 5881 5882 5883 5885 5886 5888 5889 5891 5891 5892 5894 5894 5894 5894 5895 5896 5896 5896 5897 5896 5894 5894 5894 5894 5894 5893 5895 5896 5897 5898 5898 5898 5898 5898 5898 5898 5898 5897 5897 5897
5876 5875 5875 5875 5874 5874 5874 5873 5873 5873 5872 5872 5872 5872 5872 5872 5871 5871 5870 5870 5869 5868 5868 5868 5867 5866 5865 5865 5865 5866 5866 5866 5867 5867 5868 5869 5870 5870 5872 5872 5872 5873 5873 5874 5875 5876 5877 5879 5881 5882 5884 5885 5887 5888 5889 5890 5890 5891 5892 5893 5893 5893 5894 5895 5895 5895 5896 5895 5894 5894 5893 5893 5893 5893 5895 5896 5897 5898 5898 5898 5898 5898 5898 5898 5898 5897 5897 5897
5874 5873 5873 5873 5872 5872 5872 5872 5871 5871 5871 5871 5870 5870 5871 5870 5870 5870 5869 5869 5868 5868 5867 5867 5866 5866 5865 5864 5864 5865 5865 5865 5865 5866 5866 5867 5868 5869 5870 5871 5871 5872 5872 5873 5874 5876 5877 5878 5880 5882 5883 5885 5886 5887 5887 5888 5889 5890 5891 5892 5892 5892 5893 5894 5894 5894 5894 5894 5894 5894 5893 5893 5893 5893 5895 5897 5898 5898 5897 5898 5898 5898 5898 5898 5898 5897 5897 5897
5872 5871 5871 5871 5870 5870 5870 5870 5870 5869 5869 5869 5869 5869 5869 5869 5869 5869 5868 5868 5867 5867 5866 5866 5866 5865 5864 5864 5864 5864 5864 5864 5864 5864 5865 5866 5867 5867 5868 5869 5870 5871 5872 5873 5874 5875 5877 5878 5880 5881 5882 5884 5885 5885 5885 5887 5888 5889 5890 5890 5891 5891 5891 5892 5893 5893 5893 5894 5894 5894 5894 5893 5893 5893 5895 5897 5898 5898 5898 5898 5898 5898 5898 5898 5897 5897 5897 5897
5870 5869 5869 5869 5868 5868 5868 5868 5868 5867 5867 5867 5867 5867 5868 5868 5868 5867 5867 5866 5866 5866 5865 5865 5865 5864 5864 5863 5863 5862 5863 5863 5863 5863 5864 5864 5865 5866 5867 5868 5869 5870 5871 5872 5873 5874 5876 5878 5878 5879 5880 5882 5883 5883 5884 5886 5887 5888 5889 5889 5889 5889 5889 5891 5893 5893 5894 5894 5894 5894 5894 5894 5893 5893 5894 5896 5898 5898 5898 5898 5898 5898 5898 5898 5897 5897 5897 5897
5868 5867 5867 5866 5866 5866 5866 5866 5865 5865 5865 5865 5865 5865 5866 5866 5866 5865 5865 5865 5865 5864 5864 5864 5864 5863 5863 5863 5862 5861 5862 5862 5862 5862 5862 5863 5863 5864 5865 5866 5867 5868 5870 5871 5871 5872 5874 5876 5877 5878 5879 5880 5880 5880 5882 5885 5886 5886 5886 5886 5887 5887 5888 5890 5892 5893 5893 5894 5894 5894 5894 5894 5893 5893 5893 5895 5897 5898 5898 5899 5899 5898 5898 5898 5898 5897 5897 5897
5865 5865 5864 5864 5864 5864 5863 5863 5863 5863 5862 5862 5863 5864 5864 5864 5864 5863 5864 5864 5864 5863 5863 5863 5862 5862 5862 5861 5861 5861 5861 5861 5861 5861 5861 5861 5862 5862 5863 5864 5865 5866 5868 5869 5870 5871 5873 5874 5874 5875 5875 5876 5878 5879 5881 5883 5884 5884 5884 5884 5886 5887 5888 5890 5891 5892 5892 5894 5894 5894 5894 5894 5893 5893 5892 5893 5896 5898 5898 5899 5899 5899 5899 5898 5898 5898 5897 5897
5863 5863 5862 5862 5861 5861 5861 5861 5861 5860 5860 5860 5861 5862 5862 5862 5861 5861 5862 5862 5862 5862 5861 5861 5861 5861 5861 5860 5859 5860 5860 5859 5859 5860 5860 5860 5860 5861 5861 5862 5863 5864 5866 5867 5869 5870 5871 5872 5871 5871 5872 5874 5876 5877 5879 5881 5882 5882 5882 5883 5885 5886 5888 5889 5890 5891 5892 5893 5894 5894 5894 5893 5894 5893 5892 5892 5895 5897 5898 5898 5899 5899 5899 5899 5899 5898 5897 5897
5861 5860 5860 5859 5859 5859 5858 5858 5858 5857 5857 5857 5858 5859 5860 5859 5859 5859 5859 5860 5860 5860 5860 5860 5860 5859 5859 5858 5858 5860 5859 5858 5858 5858 5859 5859 5859 5860 5860 5861 5862 5862 5864 5865 5866 5868 5868 5869 5869 5870 5872 5873 5874 5875 5877 5879 5880 5880 5881 5883 5885 5886 5887 5889 5890 5890 5891 5892 5893 5894 5894 5893 5894 5893 5892 5892 5894 5896 5898 5898 5898 5899 5899 5899 5899 5898 5898 5897
5859 5858 5858 5857 5857 5856 5856 5856 5855 5855 5854 5855 5856 5857 5857 5856 5856 5856 5857 5857 5858 5858 5858 5858 5858 5858 5857 5856 5858 5859 5858 5857 5857 5856 5857 5859 5859 5858 5859 5859 5860 5861 5862 5863 5864 5865 5865 5866 5867 5869 5871 5871 5872 5873 5875 5877 5878 5878 5879 5882 5884 5885 5887 5888 5888 5889 5890 5891 5892 5894 5895 5894 5893 5893 5892 5892 5893 5895 5897 5898 5898 5898 5899 5899 5899 5898 5898 5897
5857 5856 5856 5855 5854 5854 5854 5854 5853 5852 5852 5852 5853 5853 5854 5854 5854 5854 5854 5854 5855 5856 5856 5856 5856 5856 5855 5855 5856 5857 5856 5855 5855 5855 5857 5858 5858 5858 5857 5858 5858 5859 5860 5861 5862 5862 5863 5864 5865 5867 5868 5869 5871 5871 5872 5874 5875 5876 5877 5880 5883 5884 5886 5887 5887 5889 5890 5890 5891 5893 5894 5893 5893 5892 5892 5892 5893 5895 5896 5898 5898 5898 5898 5899 5899 5898 5898 5897
5854 5854 5853 5853 5852 5851 5851 5851 5851 5850 5849 5850 5850 5850 5850 5850 5851 5851 5851 5852 5852 5853 5853 5853 5853 5854 5853 5852 5854 5855 5854 5853 5853 5855 5856 5856 5856 5856 5856 5857 5857 5858 5858 5858 5859 5860 5861 5862 5863 5865 5866 5868 5869 5869 5870 5872 5873 5874 5875 5878 5881 5883 5885 5885 5886 5888 5889 5888 5889 5892 5893 5892 5892 5892 5892 5892 5892 5894 5896 5897 5898 5898 5898 5898 5899 5898 5898 5897
5851 5851 5850 5850 5849 5848 5848 5848 5848 5847 5847 5847 5847 5847 5847 5847 5848 5848 5849 5849 5850 5850 5850 5851 5851 5851 5851 5850 5851 5853 5852 5851 5852 5854 5854 5854 5854 5854 5855 5856 5856 5856 5856 5857 5857 5858 5859 5860 5862 5863 5864 5866 5866 5867 5869 5870 5871 5872 5873 5877 5880 5882 5884 5884 5885 5887 5887 5886 5888 5891 5891 5890 5891 5891 5891 5891 5892 5894 5895 5896 5897 5898 5898 5898 5899 5898 5898 5897
5847 5847 5846 5846 5846 5845 5845 5845 5845 5844 5843 5844 5844 5844 5844 5844 5845 5845 5846 5846 5847 5847 5847 5848 5848 5848 5848 5847 5848 5850 5850 5850 5851 5852 5852 5851 5852 5852 5853 5854 5854 5854 5854 5855 5856 5857 5857 5859 5860 5861 5863 5864 5864 5865 5866 5867 5869 5871 5872 5876 5878 5880 5882 5883 5884 5885 5885 5885 5887 5889 5888 5888 5889 5889 5890 5891 5892 5893 5894 5895 5896 5897 5898 5898 5898 5898 5898 5897
5843 5843 5842 5842 5841 5841 5841 5842 5842 5841 5840 5841 5841 5841 5841 5841 5841 5842 5842 5843 5844 5844 5844 5845 5845 5846 5846 5845 5845 5847 5848 5848 5848 5849 5849 5849 5850 5851 5851 5851 5852 5852 5852 5853 5854 5855 5856 5857 5858 5859 5860 5861 5862 5863 5865 5867 5869 5871 5872 5874 5877 5878 5880 5882 5883 5883 5882 5883 5885 5887 5886 5886 5887 5888 5889 5890 5891 5892 5893 5894 5895 5896 5898 5898 5898 5898 5898 5897
5839 5838 5838 5837 5836 5836 5837 5838 5838 5837 5837 5837 5838 5838 5837 5837 5838 5838 5839 5840 5840 5840 5841 5842 5843 5843 5843 5842 5842 5843 5845 5845 5845 5846 5846 5846 5847 5849 5849 5849 5850 5850 5851 5852 5853 5854 5855 5855 5856 5857 5858 5860 5862 5864 5865 5867 5869 5870 5871 5873 5874 5876 5878 5881 5881 5880 5880 5881 5883 5885 5885 5884 5885 5886 5887 5888 5889 5890 5891 5893 5894 5895 5897 5897 5897 5897 5897 5897
5834 5834 5833 5832 5832 5831 5832 5833 5833 5833 5833 5832 5833 5834 5833 5833 5834 5835 5836 5836 5837 5837 5838 5839 5840 5840 5840 5839 5838 5840 5841 5842 5843 5844 5844 5844 5844 5846 5847 5847 5848 5849 5850 5851 5851 5852 5852 5853 5854 5856 5858 5860 5861 5863 5864 5866 5867 5868 5869 5870 5872 5874 5877 5879 5879 5878 5878 5879 5881 5883 5883 5883 5883 5885 5885 5886 5886 5887 5889 5891 5893 5894 5896 5897 5897 5896 5897 5897
5829 5829 5828 5827 5827 5826 5827 5828 5828 5828 5829 5828 5828 5829 5829 5829 5829 5830 5832 5833 5833 5834 5835 5835 5836 5837 5836 5834 5835 5836 5836 5839 5841 5841 5841 5842 5841 5843 5845 5846 5846 5847 5848 5848 5848 5849 5850 5852 5854 5855 5856 5858 5859 5861 5862 5863 5865 5866 5867 5868 5870 5872 5875 5877 5877 5877 5876 5877 5879 5880 5881 5881 5881 5882 5882 5883 5884 5885 5886 5888 5891 5893 5895 5897 5897 5896 5896 5896
5823 5823 5823 5822 5821 5821 5821 5822 5823 5823 5823 5823 5823 5823 5824 5825 5824 5825 5827 5829 5829 5828 5831 5832 5832 5835 5834 5829 5830 5832 5833 5837 5839 5838 5839 5839 5839 5840 5842 5843 5844 5845 5845 5844 5845 5847 5849 5852 5853 5853 5854 5854 5855 5857 5859 5861 5862 5863 5865 5866 5868 5871 5874 5875 5874 5875 5874 5874 5876 5877 5877 5878 5879 5879 5879 5881 5882 5884 5884 5885 5887 5890 5893 5895 5896 5896 5895 5896
5817 5817 5816 5816 5816 5815 5815 5816 5817 5818 5817 5817 5818 5818 5819 5819 5819 5820 5821 5825 5826 5824 5825 5828 5828 5831 5831 5826 5825 5827 5831 5835 5834 5834 5836 5837 5837 5837 5838 5840 5842 5842 5841 5842 5844 5845 5847 5850 5850 5850 5851 5851 5852 5854 5856 5857 5858 5860 5862 5864 5867 5870 5871 5872 5872 5872 5871 5871 5873 5874 5874 5875 5876 5876 5878 5880 5881 5882 5882 5881 5883 5886 5890 5893 5895 5895 5895 5895
5810 5810 5810 5810 5809 5809 5809 5809 5811 5812 5811 5811 5812 5813 5813 5813 5814 5814 5814 5818 5823 5822 5819 5820 5824 5827 5827 5822 5820 5823 5829 5832 5830 5831 5832 5834 5835 5834 5835 5837 5837 5838 5839 5841 5842 5842 5845 5846 5847 5848 5848 5848 5849 5850 5852 5853 5855 5858 5859 5862 5866 5868 5868 5869 5869 5868 5868 5869 5870 5871 5870 5871 5873 5875 5878 5879 5879 5880 5881 5881 5880 5882 5887 5891 5893 5894 5894 5894
5802 5802 5803 5803 5803 5803 5802 5803 5804 5805 5805 5804 5805 5806 5807 5807 5807 5809 5809 5810 5816 5821 5817 5814 5817 5821 5822 5820 5818 5820 5824 5827 5828 5827 5828 5830 5831 5831 5832 5832 5833 5835 5837 5838 5839 5840 5842 5843 5844 5845 5845 5846 5847 5848 5849 5851 5853 5855 5857 5861 5864 5865 5865 5866 5867 5866 5866 5866 5868 5869 5867 5868 5870 5873 5875 5876 5877 5879 5880 5881 5881 5881 5884 5888 5891 5893 5893 5893
5794 5795 5795 5795 5796 5796 5795 5796 5797 5797 5798 5797 5798 5800 5801 5801 5801 5802 5804 5803 5808 5815 5815 5811 5811 5813 5816 5816 5816 5816 5817 5823 5825 5821 5822 5827 5827 5826 5827 5827 5830 5833 5834 5835 5835 5837 5839 5840 5841 5842 5843 5845 5845 5847 5848 5849 5851 5853 5856 5859 5860 5861 5862 5864 5865 5864 5863 5864 5866 5865 5863 5864 5866 5869 5872 5874 5875 5877 5878 5879 5880 5879 5881 5885 5889 5891 5892 5892
5785 5786 5786 5786 5788 5789 5789 5789 5789 5789 5790 5790 5791 5793 5793 5794 5795 5796 5797 5797 5800 5806 5809 5809 5806 5807 5809 5810 5812 5813 5813 5819 5820 5815 5818 5824 5823 5822 5823 5824 5828 5830 5831 5831 5832 5835 5838 5837 5838 5840 5841 5842 5844 5846 5848 5848 5849 5852 5855 5856 5857 5859 5860 5861 5861 5860 5860 5862 5862 5862 5861 5860 5862 5866 5870 5871 5872 5875 5876 5877 5878 5878 5879 5882 5886 5889 5890 5891
5776 5777 5778 5778 5779 5781 5782 5782 5782 5782 5781 5782 5784 5786 5787 5787 5789 5790 5791 5791 5793 5798 5801 5804 5803 5802 5803 5804 5806 5807 5808 5813 5814 5811 5815 5818 5817 5817 5819 5822 5825 5826 5826 5827 5830 5834 5835 5834 5835 5837 5837 5839 5842 5845 5846 5847 5848 5849 5852 5852 5854 5856 5857 5857 5857 5856 5858 5858 5856 5859 5860 5857 5858 5864 5867 5867 5869 5873 5876 5877 5877 5877 5878 5880 5884 5887 5889 5890
5767 5768 5769 5769 5770 5772 5773 5774 5775 5774 5773 5774 5775 5777 5779 5780 5781 5783 5783 5785 5787 5790 5793 5797 5798 5797 5798 5799 5800 5802 5803 5807 5808 5807 5809 5811 5813 5814 5816 5819 5821 5821 5821 5823 5827 5830 5830 5830 5831 5832 5833 5835 5839 5841 5843 5844 5845 5846 5848 5849 5850 5851 5853 5854 5852 5854 5855 5850 5849 5856 5858 5854 5855 5860 5863 5864 5867 5873 5876 5877 5876 5876 5876 5878 5882 5885 5887 5888
5759 5759 5760 5760 5762 5764 5764 5765 5767 5766 5766 5766 5766 5768 5770 5771 5774 5774 5775 5780 5782 5783 5786 5789 5791 5792 5792 5793 5795 5796 5798 5800 5802 5803 5803 5806 5809 5810 5812 5815 5814 5815 5817 5820 5823 5825 5826 5827 5827 5828 5831 5833 5836 5837 5839 5841 5841 5841 5843 5844 5845 5846 5848 5849 5848 5851 5850 5843 5845 5854 5856 5853 5853 5855 5859 5862 5867 5872 5874 5875 5875 5874 5874 5876 5879 5882 5885 5887
5750 5750 5750 5751 5753 5755 5755 5755 5756 5757 5758 5758 5758 5759 5760 5762 5764 5765 5769 5776 5777 5776 5778 5780 5783 5786 5786 5786 5788 5791 5793 5794 5796 5798 5799 5801 5803 5804 5807 5809 5809 5810 5812 5815 5819 5821 5822 5823 5824 5827 5829 5831 5832 5834 5836 5837 5837 5838 5839 5840 5841 5842 5843 5843 5844 5846 5843 5839 5845 5852 5853 5852 5851 5853 5857 5861 5866 5869 5871 5873 5873 5873 5873 5874 5877 5880 5883 5885
5740 5741 5741 5742 5744 5744 5746 5747 5747 5747 5747 5749 5750 5750 5751 5752 5753 5758 5765 5769 5768 5768 5771 5772 5775 5779 5779 5781 5782 5784 5788 5789 5791 5792 5793 5796 5798 5800 5803 5805 5807 5808 5809 5814 5817 5818 5819 5821 5823 5824 5826 5828 5829 5831 5833 5833 5834 5835 5837 5836 5837 5838 5839 5839 5839 5840 5840 5840 5844 5850 5851 5849 5849 5853 5857 5860 5864 5867 5869 5872 5873 5872 5872 5872 5874 5876 5879 5882
5730 5731 5731 5732 5734 5734 5735 5737 5738 5738 5738 5739 5740 5742 5742 5741 5745 5752 5758 5759 5759 5761 5763 5764 5767 5770 5773 5775 5775 5778 5781 5784 5785 5785 5786 5790 5792 5795 5798 5800 5802 5803 5806 5811 5812 5813 5815 5818 5818 5820 5823 5825 5826 5829 5831 5831 5832 5834 5835 5834 5834 5835 5835 5835 5837 5838 5839 5840 5841 5847 5849 5845 5846 5852 5856 5859 5862 5865 5868 5870 5871 5873 5872 5872 5873 5874 5876 5878
5719 5720 5721 5722 5723 5723 5725 5726 5728 5729 5729 5728 5730 5731 5731 5734 5740 5745 5747 5748 5750 5753 5755 5757 5759 5761 5765 5767 5768 5772 5774 5776 5779 5780 5780 5782 5785 5789 5791 5794 5796 5797 5801 5804 5805 5807 5809 5811 5814 5819 5821 5823 5824 5827 5829 5828 5829 5831 5833 5832 5832 5833 5833 5835 5836 5837 5839 5839 5838 5842 5843 5841 5845 5851 5854 5858 5860 5863 5865 5868 5870 5871 5872 5872 5872 5873 5874 5875
5707 5707 5710 5712 5713 5713 5714 5714 5715 5717 5718 5719 5719 5719 5723 5729 5733 5733 5734 5738 5741 5744 5747 5749 5750 5752 5755 5758 5762 5766 5767 5769 5773 5775 5775 5776 5779 5783 5787 5789 5792 5793 5796 5799 5801 5803 5804 5807 5813 5815 5816 5818 5820 5823 5823 5823 5824 5826 5827 5827 5829 5832 5833 5833 5834 5835 5837 5836 5835 5837 5839 5841 5846 5848 5851 5855 5857 5860 5862 5865 5867 5869 5871 5872 5872 5872 5872 5874
5695 5694 5696 5700 5701 5702 5702 5702 5703 5703 5705 5708 5708 5710 5717 5721 5721 5721 5724 5728 5731 5734 5737 5740 5741 5743 5746 5749 5754 5758 5759 5762 5765 5768 5769 5770 5772 5777 5781 5784 5787 5788 5791 5794 5797 5799 5800 5806 5810 5809 5810 5814 5816 5817 5817 5817 5820 5820 5821 5825 5830 5831 5830 5830 5831 5833 5834 5831 5832 5835 5836 5840 5843 5844 5847 5851 5854 5857 5859 5861 5864 5866 5868 5870 5871 5871 5872 5873
5682 5681 5682 5686 5688 5688 5687 5688 5690 5690 5692 5695 5697 5702 5708 5709 5709 5711 5714 5716 5720 5723 5727 5730 5732 5734 5737 5740 5744 5749 5752 5754 5757 5760 5763 5764 5765 5768 5773 5776 5777 5780 5783 5786 5789 5791 5794 5800 5804 5802 5806 5811 5812 5811 5810 5812 5814 5814 5819 5826 5827 5824 5824 5824 5825 5828 5828 5826 5828 5833 5834 5837 5839 5841 5845 5848 5851 5854 5856 5858 5861 5863 5865 5867 5869 5870 5871 5872
5667 5665 5667 5672 5673 5672 5673 5675 5676 5678 5679 5682 5687 5692 5694 5696 5699 5701 5702 5705 5708 5712 5716 5719 5723 5726 5728 5730 5734 5740 5744 5747 5749 5752 5755 5757 5757 5761 5766 5769 5770 5773 5775 5778 5781 5785 5788 5792 5796 5797 5801 5805 5805 5803 5803 5805 5809 5812 5818 5821 5817 5816 5819 5820 5820 5823 5824 5824 5826 5831 5833 5834 5837 5840 5843 5846 5849 5851 5853 5855 5857 5859 5862 5864 5866 5869 5870 5871
5650 5648 5649 5655 5656 5655 5658 5661 5662 5664 5666 5669 5675 5678 5680 5684 5688 5689 5689 5693 5697 5701 5705 5708 5712 5716 5719 5721 5725 5730 5735 5738 5742 5744 5746 5748 5750 5754 5758 5761 5765 5767 5769 5773 5776 5779 5782 5785 5790 5794 5796 5798 5796 5794 5796 5802 5807 5810 5813 5813 5811 5813 5816 5816 5817 5819 5823 5824 5825 5829 5831 5831 5835 5839 5841 5844 5847 5849 5850 5852 5853 5856 5858 5861 5863 5866 5867 5869
5633 5631 5631 5636 5638 5637 5641 5646 5648 5650 5652 5656 5660 5663 5667 5671 5674 5676 5678 5682 5686 5690 5693 5697 5701 5706 5709 5713 5716 5720 5725 5729 5734 5735 5736 5739 5743 5746 5749 5753 5758 5761 5764 5768 5771 5775 5779 5781 5786 5790 5790 5789 5787 5787 5793 5801 5804 5806 5807 5808 5810 5811 5812 5812 5813 5816 5819 5821 5823 5826 5827 5829 5835 5838 5839 5841 5843 5845 5847 5849 5850 5852 5854 5857 5860 5862 5864 5866
5618 5616 5614 5617 5619 5619 5624 5629 5632 5635 5637 5641 5645 5649 5654 5657 5661 5664 5666 5670 5675 5678 5681 5685 5690 5695 5700 5703 5706 5710 5715 5720 5724 5726 5727 5731 5734 5737 5742 5746 5751 5755 5758 5761 5764 5770 5774 5774 5779 5785 5784 5783 5783 5787 5794 5799 5801 5802 5803 5806 5808 5809 5809 5809 5810 5814 5817 5818 5820 5822 5823 5828 5834 5836 5836 5838 5840 5841 5843 5845 5847 5849 5851 5853 5856 5858 5861 5863
5607 5604 5600 5601 5603 5603 5607 5611 5614 5619 5622 5625 5629 5634 5639 5643 5648 5652 5654 5658 5663 5665 5669 5674 5678 5683 5689 5693 5696 5701 5705 5710 5714 5716 5718 5722 5726 5729 5734 5739 5743 5747 5750 5754 5757 5762 5765 5766 5771 5778 5780 5780 5783 5787 5790 5793 5796 5796 5796 5800 5804 5804 5803 5804 5808 5814 5816 5815 5817 5818 5818 5825 5832 5834 5835 5836 5837 5838 5840 5841 5843 5845 5847 5850 5852 5854 5857 5860
5599 5595 5589 5588 5589 5589 5593 5596 5598 5602 5606 5609 5614 5619 5623 5628 5633 5638 5642 5646 5649 5653 5658 5662 5666 5671 5677 5682 5687 5692 5696 5700 5704 5707 5710 5714 5717 5720 5725 5730 5735 5739 5743 5746 5750 5754 5757 5759 5764 5771 5775 5777 5780 5782 5784 5786 5788 5787 5788 5794 5797 5797 5800 5803 5808 5812 5810 5809 5813 5814 5813 5820 5829 5832 5833 5834 5835 5836 5838 5839 5841 5842 5844 5846 5848 5851 5854 5856
5592 5589 5584 5580 5578 5578 5580 5584 5586 5588 5591 5595 5599 5604 5608 5612 5617 5623 5628 5632 5635 5641 5646 5649 5653 5659 5663 5670 5677 5683 5687 5690 5694 5697 5701 5704 5709 5712 5717 5722 5726 5730 5734 5738 5742 5746 5749 5752 5756 5762 5766 5769 5772 5774 5775 5778 5780 5779 5782 5788 5791 5795 5799 5801 5803 5805 5802 5803 5809 5809 5808 5816 5826 5830 5830 5831 5833 5834 5835 5837 5838 5840 5841 5843 5845 5848 5850 5853
5586 5584 5580 5575 5572 5570 5570 5572 5575 5577 5578 5582 5586 5589 5594 5598 5603 5610 5614 5617 5622 5629 5633 5635 5639 5645 5651 5658 5666 5671 5676 5680 5684 5688 5691 5695 5700 5704 5708 5712 5716 5721 5726 5730 5734 5738 5741 5744 5748 5752 5758 5761 5764 5766 5769 5771 5774 5775 5778 5783 5788 5792 5795 5796 5799 5798 5795 5799 5805 5805 5807 5814 5822 5826 5828 5829 5830 5832 5833 5834 5836 5837 5839 5840 5842 5844 5847 5849
5580 5579 5577 5573 5569 5566 5564 5564 5566 5567 5568 5571 5574 5577 5581 5586 5590 5595 5600 5604 5610 5616 5619 5622 5627 5633 5639 5645 5651 5658 5665 5671 5674 5678 5682 5686 5691 5696 5700 5704 5708 5712 5717 5722 5726 5729 5733 5737 5740 5744 5750 5755 5757 5761 5764 5767 5770 5771 5773 5778 5783 5787 5790 5793 5793 5789 5792 5799 5800 5802 5809 5812 5817 5823 5826 5827 5828 5829 5830 5831 5833 5834 5836 5837 5839 5841 5843 5845
5574 5572 5571 5571 5567 5563 5560 5559 5559 5560 5559 5562 5565 5567 5571 5575 5578 5582 5588 5592 5599 5604 5606 5610 5615 5620 5626 5631 5638 5645 5653 5659 5664 5668 5672 5675 5681 5688 5692 5696 5700 5704 5708 5713 5717 5721 5725 5729 5731 5735 5741 5747 5752 5756 5758 5761 5764 5765 5768 5772 5777 5782 5786 5788 5785 5786 5793 5795 5794 5803 5810 5809 5811 5819 5823 5825 5826 5827 5828 5829 5829 5831 5832 5834 5836 5837 5839 5841
5570 5567 5566 5566 5564 5561 5558 5556 5555 5555 5554 5556 5557 5559 5563 5566 5568 5573 5578 5581 5586 5590 5594 5599 5604 5608 5613 5619 5625 5632 5639 5647 5652 5657 5661 5666 5672 5678 5683 5688 5692 5696 5700 5704 5709 5713 5718 5720 5723 5727 5733 5739 5745 5749 5751 5755 5758 5760 5764 5768 5772 5777 5780 5782 5782 5786 5790 5788 5792 5804 5807 5803 5808 5814 5818 5823 5824 5824 5826 5826 5826 5827 5829 5831 5833 5834 5836 5838
5567 5565 5563 5562 5560 5558 5557 5555 5553 5552 5551 5552 5552 5554 5556 5559 5561 5566 5569 5573 5577 5579 5583 5589 5593 5597 5603 5607 5613 5620 5626 5632 5638 5645 5652 5658 5663 5669 5674 5679 5684 5688 5692 5696 5700 5705 5709 5712 5715 5719 5725 5731 5737 5741 5745 5749 5751 5755 5759 5763 5767 5771 5775 5778 5779 5783 5785 5784 5791 5800 5799 5798 5805 5809 5813 5819 5820 5821 5822 5822 5822 5824 5826 5828 5830 5831 5833 5835
5564 5562 5562 5560 5557 5556 5555 5554 5552 5551 5550 5550 5550 5550 5552 5554 5556 5559 5562 5567 5571 5571 5574 5579 5583 5587 5592 5595 5601 5607 5612 5618 5625 5634 5642 5648 5654 5659 5664 5669 5675 5680 5684 5688 5691 5696 5701 5705 5708 5712 5717 5723 5728 5733 5737 5742 5745 5749 5754 5759 5763 5766 5770 5772 5774 5777 5779 5780 5786 5793 5792 5794 5802 5807 5810 5814 5816 5817 5818 5818 5819 5821 5822 5824 5826 5828 5830 5831
5561 5560 5560 5558 5556 5555 5554 5552 5551 5550 5549 5549 5548 5548 5549 5550 5552 5554 5556 5559 5564 5565 5567 5570 5574 5577 5581 5585 5590 5594 5598 5606 5615 5623 5631 5637 5643 5648 5653 5659 5665 5670 5676 5680 5683 5688 5692 5696 5701 5705 5708 5714 5721 5724 5728 5735 5739 5743 5749 5756 5759 5760 5763 5766 5768 5770 5773 5777 5782 5785 5785 5791 5801 5806 5807 5809 5811 5813 5814 5816 5817 5817 5818 5820 5821 5823 5826 5828
5559 5557 5557 5557 5555 5554 5553 5551 5550 5550 5549 5548 5548 5547 5547 5547 5548 5551 5552 5554 5558 5560 5561 5564 5567 5570 5574 5578 5579 5581 5586 5596 5605 5612 5618 5625 5632 5637 5643 5650 5655 5661 5668 5671 5674 5679 5683 5688 5694 5696 5699 5707 5713 5715 5721 5727 5731 5737 5745 5750 5752 5754 5757 5760 5763 5766 5769 5774 5778 5779 5782 5792 5801 5802 5802 5804 5806 5807 5810 5813 5814 5814 5815 5816 5817 5820 5822 5824